User: anonymous   Login
Location: Vancouver
(49.2500°N, 123.1330°W)
Time: 05:36:23
(UTC-07:00)
Language:

Cosmos 1939 Rocket - Orbit

View from above orbital plane
View from above orbital plane
View from above satellite
View from above satellite

Ground track
Ground track

The orbit data is extracted from the following two-line orbital elements,

1 19046U 88032B   17144.95064747 +.00001047 +00000-0 +82874-4 0  9995
2 19046 097.5292 192.5392 0037031 049.2253 311.2175 15.02200337568862
Epoch (UTC): 24 May 2017 22:48:55
Eccentricity: 0.0037031
inclination: 97.5292°
perigee height: 534 km
apogee height: 586 km
right ascension of ascending node: 192.5392°
argument of perigee: 49.2253°
revolutions per day: 15.02200337
mean anomaly at epoch: 311.2175°
orbit number at epoch: 56886

The dashed part of the orbit path shows where the satellite is in the earth's shadow,  

DLR